[[{"header":{"parameterUnit":"m.s-1","parameterCategory":1,"la1":30.2992,"la2":30.254,"lo1":-89.0895,"lo2":-89.0443,"dy":0.0025,"dx":0.0025,"nx":19,"ny":19,"refTime":"2026-05-09T09:00:00:Z","depth":0,"parameterNumber":2,"parameterNumberName":"U-component_of_WINDS"},"data":[0,0,0,3.2566,3.2565,3.2463,3.2463,3.2354,3.2353,0,0,0,0,0,0,0,0,0,0,0,3.2615,3.2615,3.2566,3.2564,3.2463,3.2463,3.2354,3.2353,0,0,0,0,0,0,0,0,0,0,0,3.2615,3.2615,3.2615,3.2564,3.2463,3.2463,3.2354,3.2422,0,0,0,0,0,0,0,0,0,0,3.2516,3.2581,3.2615,3.2615,3.2564,3.2464,3.2463,3.2425,3.2417,3.241,0,3.2414,0,3.2382,3.2347,3.2347,0,0,0,3.255,3.2587,3.2543,3.2615,3.2563,3.2464,3.2505,3.242,3.2412,3.2401,3.2412,3.2407,3.238,3.2347,3.2346,3.236,3.2361,0,0,3.2555,3.2606,3.2549,3.2539,3.2562,3.2508,3.2502,3.2415,3.2429,3.2411,3.2404,3.2378,3.2346,3.2346,3.236,3.2361,0,0,0,3.2581,3.261,3.2568,3.2544,3.2524,3.2506,3.2498,3.2432,3.2414,3.2402,3.2377,3.2346,3.2345,3.2359,3.236,3.2446,0,0,0,3.2584,3.2625,3.2571,3.2601,3.2527,3.2478,3.2518,3.242,3.2409,3.2377,3.2346,3.2344,3.2358,3.2359,3.2442,3.2479,0,0,0,3.2615,3.2629,3.2621,3.2604,3.2563,3.2479,3.2455,3.2417,3.2394,3.2347,3.2344,3.2357,3.2359,3.2439,3.2472,3.2494,0,0,0,3.2662,3.2701,3.2623,3.2655,3.2564,3.2535,3.2455,3.243,3.24,3.2345,3.2358,3.236,3.2437,3.2469,3.2491,3.2521,3.254,0,0,3.2739,3.2712,3.2727,3.2654,3.2652,3.2546,3.2553,3.2477,3.2425,3.2383,3.2383,3.2444,3.2472,3.2493,3.2627,3.2642,0,0,0,3.2768,3.2779,3.2767,3.2742,3.2685,3.2637,3.2554,3.2523,3.2486,3.2416,3.2457,3.2472,3.2482,3.2494,3.2507,3.251,3.2368,3.2368,3.2368,3.2951,3.2881,3.2898,3.2816,3.2791,3.2702,3.2673,3.2616,3.2555,3.2564,3.2552,3.2642,3.2658,3.2667,3.2672,3.2564,3.2564,3.2564,3.2564,3.3055,3.3058,3.2971,3.2957,3.288,3.2865,3.2777,3.2732,3.2702,3.2647,3.2653,3.2598,3.2686,3.2685,3.257,3.2569,3.2568,3.2568,3.2567,3.3166,3.3155,3.3118,3.3069,3.3038,3.2949,3.2924,3.2855,3.2789,3.2795,3.277,3.2768,3.2755,3.2788,3.2788,3.2789,3.2789,3.2789,3.2789,3.3295,3.3251,3.3241,3.3179,3.315,3.3102,3.3007,3.2974,3.2919,3.2869,3.2869,3.2802,3.2709,3.2686,3.2794,3.2793,3.2792,3.2792,3.2792,3.3425,3.3383,3.3369,3.3339,3.3256,3.3226,3.3136,3.3073,3.3035,3.3023,3.2952,3.2896,3.2863,3.2852,3.2832,3.2971,3.2971,3.2971,3.2971,3.3517,3.3493,3.3459,3.3415,3.3364,3.328,3.3255,3.3177,3.309,3.306,3.3029,3.2996,3.2989,3.2959,3.2946,3.2927,3.3086,3.3087,3.3087,3.3591,3.3558,3.3555,3.3473,3.3401,3.3338,3.3311,3.3257,3.3148,3.309,3.3033,3.3028,3.2975,3.2963,3.2906,3.2887,3.285,0,0]},{"header":{"parameterUnit":"m.s-1","parameterCategory":1,"la1":30.2992,"la2":30.254,"lo1":-89.0895,"lo2":-89.0443,"dy":0.0025,"dx":0.0025,"nx":19,"ny":19,"refTime":"2026-05-09T09:00:00:Z","depth":0,"parameterNumber":3,"parameterNumberName":"V-component_of_WINDS"},"data":[0,0,0,0.9454,0.9462,0.9877,0.9879,1.0373,1.0377,0,0,0,0,0,0,0,0,0,0,0,0.9305,0.9307,0.9454,0.9463,0.9877,0.9879,1.0372,1.0377,0,0,0,0,0,0,0,0,0,0,0,0.9304,0.9307,0.931,0.9465,0.9877,0.9879,1.0371,1.0073,0,0,0,0,0,0,0,0,0,0,0.9677,0.9512,0.9306,0.931,0.9467,0.9876,0.9879,1.0059,1.0091,1.0169,0,1.0226,0,1.0309,1.0407,1.0409,0,0,0,0.9485,0.9485,0.962,0.931,0.947,0.9875,0.9696,1.0078,1.0114,1.0211,1.0233,1.0253,1.0317,1.041,1.0413,1.0778,1.0779,0,0,0.9462,0.9366,0.9594,0.9642,0.957,0.9683,0.9709,1.01,1.012,1.0235,1.0265,1.0325,1.0413,1.0417,1.0778,1.0779,0,0,0,0.9382,0.9349,0.9476,0.9621,0.9698,0.9694,0.9724,1.0103,1.0152,1.0271,1.0331,1.0416,1.0422,1.0777,1.0778,1.0723,0,0,0,0.9369,0.9303,0.9465,0.9411,0.9689,0.9904,0.9717,1.0124,1.0172,1.0328,1.0416,1.0426,1.0777,1.0778,1.0723,1.0715,0,0,0,0.9287,0.9294,0.9344,0.9405,0.9579,0.99,0.9973,1.0137,1.0207,1.0409,1.0427,1.0776,1.0777,1.0723,1.0715,1.0788,0,0,0,0.9174,0.9289,0.9341,0.9494,0.9575,0.986,0.9971,1.0189,1.0355,1.0418,1.0777,1.0778,1.0723,1.0716,1.0787,1.0834,1.0843,0,0,0.9266,0.9296,0.9394,0.9453,0.9704,0.9804,1.0051,1.0294,1.0402,1.0648,1.0658,1.0723,1.0715,1.0787,1.0919,1.0925,0,0,0,0.9391,0.946,0.9548,0.97,0.9886,1.0048,1.0263,1.0354,1.0567,1.0507,1.0769,1.0767,1.0814,1.0841,1.0847,1.0896,1.0785,1.0785,1.0785,0.9389,0.9518,0.969,0.9869,1.0015,1.0236,1.0369,1.0531,1.0619,1.0678,1.0754,1.0818,1.0846,1.0851,1.09,1.0785,1.0785,1.0785,1.0785,0.9541,0.9662,0.9775,0.9982,1.0119,1.0297,1.0515,1.0572,1.0761,1.077,1.0818,1.0822,1.0854,1.0904,1.0782,1.0782,1.0783,1.0783,1.0783,0.9559,0.964,0.9745,0.998,1.0148,1.0327,1.0502,1.0621,1.0734,1.0781,1.0878,1.0879,1.0901,1.0817,1.0817,1.0817,1.0818,1.0818,1.0818,0.9537,0.9658,0.979,0.9997,1.0113,1.0279,1.0503,1.0621,1.0784,1.0857,1.0859,1.0945,1.0829,1.0802,1.0822,1.0821,1.0821,1.0821,1.082,0.9653,0.9646,0.9849,0.9964,1.022,1.0382,1.0529,1.076,1.0875,1.096,1.1036,1.0928,1.097,1.0967,1.0945,1.1002,1.1002,1.1002,1.1002,0.9672,0.9702,0.994,1.0116,1.0303,1.0457,1.069,1.0866,1.1048,1.1129,1.1137,1.1116,1.1106,1.1154,1.1147,1.1129,1.1232,1.1232,1.1232,0.9754,0.9808,0.9981,1.0154,1.0364,1.0543,1.0768,1.0972,1.1176,1.1244,1.1197,1.1187,1.1155,1.1136,1.1208,1.1193,1.1163,0,0]}]]